owner,sensor,date,latitude,longitude,vertical_datum,direction_of_sea_water_velocity,sea_water_speed,upward_sea_water_velocity,qcFlag 
TABS,ioos:station:wmo:42045:1,2003-04-01T00:00:00Z,26.2168,-96.4998,2.0,39.45441033,30.07258719,-99999.0,'11111222,11111222,99999999' 
TABS,ioos:station:wmo:42045:1,2003-04-01T00:30:00Z,26.2168,-96.4998,2.0,35.07695102,26.01473813,-99999.0,'11111222,11111222,99999999' 
TABS,ioos:station:wmo:42045:1,2003-04-01T01:00:00Z,26.2168,-96.4998,2.0,36.87437665,26.31400008,-99999.0,'11111222,11111222,99999999' 
TABS,ioos:station:wmo:42045:1,2003-04-01T01:30:00Z,26.2168,-96.4998,2.0,39.81137482,25.80199217,-99999.0,'11111222,11111222,99999999' 
TABS,ioos:station:wmo:42045:1,2003-04-01T02:00:00Z,26.2168,-96.4998,2.0,38.40256423,26.77157635,-99999.0,'11111222,11111222,99999999' 
TABS,ioos:station:wmo:42045:1,2003-04-01T02:30:00Z,26.2168,-96.4998,2.0,36.09841001,32.07890896,-99999.0,'11111222,11111222,99999999' 
TABS,ioos:station:wmo:42045:1,2003-04-01T03:00:00Z,26.2168,-96.4998,2.0,34.61040747,30.73990241,-99999.0,'11111222,11111222,99999999' 
TABS,ioos:station:wmo:42045:1,2003-04-01T03:30:00Z,26.2168,-96.4998,2.0,39.19637825,32.02639536,-99999.0,'11111222,11111222,99999999' 
TABS,ioos:station:wmo:42045:1,2003-04-01T04:00:00Z,26.2168,-96.4998,2.0,47.06877767,36.04350982,-99999.0,'11111222,11111222,99999999' 
TABS,ioos:station:wmo:42045:1,2003-04-01T04:30:00Z,26.2168,-96.4998,2.0,42.34315977,31.11786625,-99999.0,'11111222,11111222,99999999' 
TABS,ioos:station:wmo:42045:1,2003-04-01T05:00:00Z,26.2168,-96.4998,2.0,37.07285129,29.37818408,-99999.0,'11111222,11111222,99999999' 
TABS,ioos:station:wmo:42045:1,2003-04-01T05:30:00Z,26.2168,-96.4998,2.0,34.97064078,26.18838865,-99999.0,'11111222,11111222,99999999' 
TABS,ioos:station:wmo:42045:1,2003-04-01T06:00:00Z,26.2168,-96.4998,2.0,32.53334567,26.92508867,-99999.0,'11111222,11111222,99999999' 
TABS,ioos:station:wmo:42045:1,2003-04-01T06:30:00Z,26.2168,-96.4998,2.0,32.47945271,27.03935095,-99999.0,'11111222,11111222,99999999' 
TABS,ioos:station:wmo:42045:1,2003-04-01T07:00:00Z,26.2168,-96.4998,2.0,27.25118208,28.76236777,-99999.0,'11111222,11111222,99999999' 
TABS,ioos:station:wmo:42045:1,2003-04-01T07:30:00Z,26.2168,-96.4998,2.0,28.96287767,27.25917277,-99999.0,'11111222,11111222,99999999' 
TABS,ioos:station:wmo:42045:1,2003-04-01T08:00:00Z,26.2168,-96.4998,2.0,27.17594671,28.52937609,-99999.0,'11111222,11111222,99999999' 
TABS,ioos:station:wmo:42045:1,2003-04-01T08:30:00Z,26.2168,-96.4998,2.0,25.59264351,31.09029591,-99999.0,'11111222,11111222,99999999' 
TABS,ioos:station:wmo:42045:1,2003-04-01T09:00:00Z,26.2168,-96.4998,2.0,27.63283482,34.56219466,-99999.0,'11111222,11111222,99999999' 
TABS,ioos:station:wmo:42045:1,2003-04-01T09:30:00Z,26.2168,-96.4998,2.0,27.4352943,34.16211352,-99999.0,'11111222,11111222,99999999' 
TABS,ioos:station:wmo:42045:1,2003-04-01T10:00:00Z,26.2168,-96.4998,2.0,13.92511844,27.46721136,-99999.0,'11111222,11111222,99999999' 
TABS,ioos:station:wmo:42045:1,2003-04-01T10:30:00Z,26.2168,-96.4998,2.0,21.43702047,31.52056472,-99999.0,'11111222,11111222,99999999' 
TABS,ioos:station:wmo:42045:1,2003-04-01T11:00:00Z,26.2168,-96.4998,2.0,27.04029205,28.04572873,-99999.0,'11111222,11111222,99999999' 
TABS,ioos:station:wmo:42045:1,2003-04-01T11:30:00Z,26.2168,-96.4998,2.0,25.51434467,36.33327125,-99999.0,'11111222,11111222,99999999' 
TABS,ioos:station:wmo:42045:1,2003-04-01T12:00:00Z,26.2168,-96.4998,2.0,26.66742179,40.10617908,-99999.0,'11111222,11111222,99999999' 
TABS,ioos:station:wmo:42045:1,2003-04-01T12:30:00Z,26.2168,-96.4998,2.0,26.39883632,38.50525289,-99999.0,'11111222,11111222,99999999' 
TABS,ioos:station:wmo:42045:1,2003-04-01T13:00:00Z,26.2168,-96.4998,2.0,27.36292748,40.79430598,-99999.0,'11111222,11111222,99999999' 
TABS,ioos:station:wmo:42045:1,2003-04-01T13:30:00Z,26.2168,-96.4998,2.0,25.37381348,40.65155963,-99999.0,'11111222,11111222,99999999' 
TABS,ioos:station:wmo:42045:1,2003-04-01T14:00:00Z,26.2168,-96.4998,2.0,26.06213471,41.7668876,-99999.0,'11111222,11111222,99999999' 
TABS,ioos:station:wmo:42045:1,2003-04-01T14:30:00Z,26.2168,-96.4998,2.0,30.88258468,42.29673864,-99999.0,'11111222,11111222,99999999' 
TABS,ioos:station:wmo:42045:1,2003-04-01T15:00:00Z,26.2168,-96.4998,2.0,31.79239723,42.46062882,-99999.0,'11111222,11111222,99999999' 
TABS,ioos:station:wmo:42045:1,2003-04-01T15:30:00Z,26.2168,-96.4998,2.0,26.71052741,42.31548653,-99999.0,'11111222,11111222,99999999' 
TABS,ioos:station:wmo:42045:1,2003-04-01T16:00:00Z,26.2168,-96.4998,2.0,28.86489746,42.79703261,-99999.0,'11111222,11111222,99999999' 
TABS,ioos:station:wmo:42045:1,2003-04-01T16:30:00Z,26.2168,-96.4998,2.0,28.58562976,42.11345272,-99999.0,'11111222,11111222,99999999' 
TABS,ioos:station:wmo:42045:1,2003-04-01T17:00:00Z,26.2168,-96.4998,2.0,31.24030148,42.30404827,-99999.0,'11111222,11111222,99999999' 
TABS,ioos:station:wmo:42045:1,2003-04-01T17:30:00Z,26.2168,-96.4998,2.0,26.62747737,41.14367509,-99999.0,'11111222,11111222,99999999' 
TABS,ioos:station:wmo:42045:1,2003-04-01T18:00:00Z,26.2168,-96.4998,2.0,33.19296707,43.78413525,-99999.0,'11111222,11111222,99999999' 
TABS,ioos:station:wmo:42045:1,2003-04-01T19:00:00Z,26.2168,-96.4998,2.0,33.66628284,39.86630658,-99999.0,'11111222,11111222,99999999' 
TABS,ioos:station:wmo:42045:1,2003-04-01T19:30:00Z,26.2168,-96.4998,2.0,33.14465749,39.61571027,-99999.0,'11111222,11111222,99999999' 
TABS,ioos:station:wmo:42045:1,2003-04-01T20:00:00Z,26.2168,-96.4998,2.0,37.85172462,36.53736307,-99999.0,'11111222,11111222,99999999' 
TABS,ioos:station:wmo:42045:1,2003-04-01T20:30:00Z,26.2168,-96.4998,2.0,33.0928842,35.91601593,-99999.0,'11111222,11111222,99999999' 
TABS,ioos:station:wmo:42045:1,2003-04-01T21:00:00Z,26.2168,-96.4998,2.0,38.85842891,35.16117177,-99999.0,'11111222,11111222,99999999' 
TABS,ioos:station:wmo:42045:1,2003-04-01T21:30:00Z,26.2168,-96.4998,2.0,36.36133241,33.56532288,-99999.0,'11111222,11111222,99999999' 
TABS,ioos:station:wmo:42045:1,2003-04-01T22:00:00Z,26.2168,-96.4998,2.0,38.43579997,30.74147849,-99999.0,'11111222,11111222,99999999' 
TABS,ioos:station:wmo:42045:1,2003-04-01T22:30:00Z,26.2168,-96.4998,2.0,37.36508921,29.16508872,-99999.0,'11111222,11111222,99999999' 
TABS,ioos:station:wmo:42045:1,2003-04-01T23:00:00Z,26.2168,-96.4998,2.0,34.91668043,24.87845654,-99999.0,'11111222,11111222,99999999' 
TABS,ioos:station:wmo:42045:1,2003-04-01T23:30:00Z,26.2168,-96.4998,2.0,37.80373488,26.75555269,-99999.0,'11111222,11111222,99999999' 
TABS,ioos:station:wmo:42045:1,2003-04-02T00:00:00Z,26.2168,-96.4998,2.0,44.17541538,25.05538864,-99999.0,'11111222,11111222,99999999' 
TABS,ioos:station:wmo:42045:1,2003-04-02T00:30:00Z,26.2168,-96.4998,2.0,59.40859273,27.45064298,-99999.0,'11111222,11111222,99999999' 
TABS,ioos:station:wmo:42045:1,2003-04-02T01:00:00Z,26.2168,-96.4998,2.0,61.39344152,23.85162468,-99999.0,'11111222,11111222,99999999' 
TABS,ioos:station:wmo:42045:1,2003-04-02T01:30:00Z,26.2168,-96.4998,2.0,56.95666151,23.34604463,-99999.0,'11111222,11111222,99999999' 
TABS,ioos:station:wmo:42045:1,2003-04-02T02:00:00Z,26.2168,-96.4998,2.0,53.80836051,22.81159793,-99999.0,'11111222,11111222,99999999' 
TABS,ioos:station:wmo:42045:1,2003-04-02T02:30:00Z,26.2168,-96.4998,2.0,56.98618063,19.27162681,-99999.0,'11111222,11111222,99999999' 
TABS,ioos:station:wmo:42045:1,2003-04-02T03:00:00Z,26.2168,-96.4998,2.0,48.66900158,18.5642452,-99999.0,'11111222,11111222,99999999' 
TABS,ioos:station:wmo:42045:1,2003-04-02T03:30:00Z,26.2168,-96.4998,2.0,53.77921504,22.42343863,-99999.0,'11111222,11111222,99999999' 
TABS,ioos:station:wmo:42045:1,2003-04-02T04:00:00Z,26.2168,-96.4998,2.0,57.66401985,19.83607068,-99999.0,'11111222,11111222,99999999' 
TABS,ioos:station:wmo:42045:1,2003-04-02T04:30:00Z,26.2168,-96.4998,2.0,59.77042603,18.47191382,-99999.0,'11111222,11111222,99999999' 
TABS,ioos:station:wmo:42045:1,2003-04-02T05:00:00Z,26.2168,-96.4998,2.0,50.84295741,14.93389768,-99999.0,'11111222,11111222,99999999' 
TABS,ioos:station:wmo:42045:1,2003-04-02T05:30:00Z,26.2168,-96.4998,2.0,38.84169241,15.75332663,-99999.0,'11111222,11111222,99999999' 
TABS,ioos:station:wmo:42045:1,2003-04-02T06:00:00Z,26.2168,-96.4998,2.0,29.15393113,15.14916829,-99999.0,'11111222,11111222,99999999' 
TABS,ioos:station:wmo:42045:1,2003-04-02T06:30:00Z,26.2168,-96.4998,2.0,35.36374815,13.01049576,-99999.0,'11111222,11111222,99999999' 
TABS,ioos:station:wmo:42045:1,2003-04-02T07:00:00Z,26.2168,-96.4998,2.0,30.77223819,19.99513191,-99999.0,'11111222,11111222,99999999' 
TABS,ioos:station:wmo:42045:1,2003-04-02T07:30:00Z,26.2168,-96.4998,2.0,29.53217574,19.69933248,-99999.0,'11111222,11111222,99999999' 
TABS,ioos:station:wmo:42045:1,2003-04-02T08:00:00Z,26.2168,-96.4998,2.0,24.43019934,17.04619899,-99999.0,'11111222,11111222,99999999' 
TABS,ioos:station:wmo:42045:1,2003-04-02T08:30:00Z,26.2168,-96.4998,2.0,20.26496271,18.42017372,-99999.0,'11111222,11111222,99999999' 
TABS,ioos:station:wmo:42045:1,2003-04-02T09:00:00Z,26.2168,-96.4998,2.0,22.70486299,20.26002221,-99999.0,'11111222,11111222,99999999' 
TABS,ioos:station:wmo:42045:1,2003-04-02T09:30:00Z,26.2168,-96.4998,2.0,24.48341089,18.09726222,-99999.0,'11111222,11111222,99999999' 
TABS,ioos:station:wmo:42045:1,2003-04-02T10:00:00Z,26.2168,-96.4998,2.0,23.67944202,19.72029412,-99999.0,'11111222,11111222,99999999' 
TABS,ioos:station:wmo:42045:1,2003-04-02T10:30:00Z,26.2168,-96.4998,2.0,17.54061,21.26890923,-99999.0,'11111222,11111222,99999999' 
TABS,ioos:station:wmo:42045:1,2003-04-02T11:00:00Z,26.2168,-96.4998,2.0,29.1776376,23.54790861,-99999.0,'11111222,11111222,99999999' 
TABS,ioos:station:wmo:42045:1,2003-04-02T11:30:00Z,26.2168,-96.4998,2.0,32.43940131,24.77604085,-99999.0,'11111222,11111222,99999999' 
TABS,ioos:station:wmo:42045:1,2003-04-02T12:00:00Z,26.2168,-96.4998,2.0,30.73254386,25.90850247,-99999.0,'11111222,11111222,99999999' 
TABS,ioos:station:wmo:42045:1,2003-04-02T12:30:00Z,26.2168,-96.4998,2.0,44.80943823,25.49841172,-99999.0,'11111222,11111222,99999999' 
TABS,ioos:station:wmo:42045:1,2003-04-02T13:00:00Z,26.2168,-96.4998,2.0,28.62073436,22.56750318,-99999.0,'11111222,11111222,99999999' 
TABS,ioos:station:wmo:42045:1,2003-04-02T13:30:00Z,26.2168,-96.4998,2.0,35.13023698,25.49375218,-99999.0,'11111222,11111222,99999999' 
TABS,ioos:station:wmo:42045:1,2003-04-02T14:00:00Z,26.2168,-96.4998,2.0,35.36019001,25.12472288,-99999.0,'11111222,11111222,99999999' 
TABS,ioos:station:wmo:42045:1,2003-04-02T14:30:00Z,26.2168,-96.4998,2.0,34.60161478,24.75940225,-99999.0,'11111222,11111222,99999999' 
TABS,ioos:station:wmo:42045:1,2003-04-02T15:00:00Z,26.2168,-96.4998,2.0,29.72935909,27.22314456,-99999.0,'11111222,11111222,99999999' 
TABS,ioos:station:wmo:42045:1,2003-04-02T16:00:00Z,26.2168,-96.4998,2.0,24.80632661,25.78954245,-99999.0,'11111222,11111222,99999999' 
TABS,ioos:station:wmo:42045:1,2003-04-02T16:30:00Z,26.2168,-96.4998,2.0,25.25465717,29.13464261,-99999.0,'11111222,11111222,99999999' 
TABS,ioos:station:wmo:42045:1,2003-04-02T17:00:00Z,26.2168,-96.4998,2.0,24.47456504,31.13784835,-99999.0,'11111222,11111222,99999999' 
TABS,ioos:station:wmo:42045:1,2003-04-02T17:30:00Z,26.2168,-96.4998,2.0,25.4855122,31.32840245,-99999.0,'11111222,11111222,99999999' 
TABS,ioos:station:wmo:42045:1,2003-04-02T18:00:00Z,26.2168,-96.4998,2.0,22.05142143,33.64088732,-99999.0,'11111222,11111222,99999999' 
TABS,ioos:station:wmo:42045:1,2003-04-02T19:00:00Z,26.2168,-96.4998,2.0,22.98699908,34.10839193,-99999.0,'11111222,11111222,99999999' 
TABS,ioos:station:wmo:42045:1,2003-04-02T19:30:00Z,26.2168,-96.4998,2.0,28.82037567,39.89104411,-99999.0,'11111222,11111222,99999999' 
TABS,ioos:station:wmo:42045:1,2003-04-02T20:00:00Z,26.2168,-96.4998,2.0,24.67527924,32.40931039,-99999.0,'11111222,11111222,99999999' 
TABS,ioos:station:wmo:42045:1,2003-04-02T20:30:00Z,26.2168,-96.4998,2.0,26.50015656,35.4551167,-99999.0,'11111222,11111222,99999999' 
TABS,ioos:station:wmo:42045:1,2003-04-02T21:00:00Z,26.2168,-96.4998,2.0,26.97550827,36.22075786,-99999.0,'11111222,11111222,99999999' 
TABS,ioos:station:wmo:42045:1,2003-04-02T21:30:00Z,26.2168,-96.4998,2.0,29.87613329,34.14809219,-99999.0,'11111222,11111222,99999999' 
TABS,ioos:station:wmo:42045:1,2003-04-02T22:00:00Z,26.2168,-96.4998,2.0,31.11143669,33.9654074,-99999.0,'11111222,11111222,99999999' 
TABS,ioos:station:wmo:42045:1,2003-04-02T22:30:00Z,26.2168,-96.4998,2.0,38.25835292,36.32066216,-99999.0,'11111222,11111222,99999999' 
TABS,ioos:station:wmo:42045:1,2003-04-02T23:00:00Z,26.2168,-96.4998,2.0,37.28860344,33.6728986,-99999.0,'11111222,11111222,99999999' 
TABS,ioos:station:wmo:42045:1,2003-04-02T23:30:00Z,26.2168,-96.4998,2.0,40.42763627,33.61678301,-99999.0,'11111222,11111222,99999999' 
TABS,ioos:station:wmo:42045:1,2003-04-03T00:00:00Z,26.2168,-96.4998,2.0,37.0692386,33.36220167,-99999.0,'11111222,11111222,99999999' 
TABS,ioos:station:wmo:42045:1,2003-04-03T00:30:00Z,26.2168,-96.4998,2.0,38.94127464,31.48657174,-99999.0,'11111222,11111222,99999999' 
TABS,ioos:station:wmo:42045:1,2003-04-03T01:00:00Z,26.2168,-96.4998,2.0,37.27190102,27.65868037,-99999.0,'11111222,11111222,99999999' 
TABS,ioos:station:wmo:42045:1,2003-04-03T01:30:00Z,26.2168,-96.4998,2.0,46.91415739,30.27399049,-99999.0,'11111222,11111222,99999999' 
TABS,ioos:station:wmo:42045:1,2003-04-03T02:00:00Z,26.2168,-96.4998,2.0,39.00837987,28.2476707,-99999.0,'11111222,11111222,99999999' 
TABS,ioos:station:wmo:42045:1,2003-04-03T02:30:00Z,26.2168,-96.4998,2.0,32.53006376,29.1776644,-99999.0,'11111222,11111222,99999999' 
TABS,ioos:station:wmo:42045:1,2003-04-03T03:00:00Z,26.2168,-96.4998,2.0,35.36152587,28.33782102,-99999.0,'11111222,11111222,99999999' 
TABS,ioos:station:wmo:42045:1,2003-04-03T03:30:00Z,26.2168,-96.4998,2.0,26.01918459,27.21865537,-99999.0,'11111222,11111222,99999999' 
TABS,ioos:station:wmo:42045:1,2003-04-03T04:00:00Z,26.2168,-96.4998,2.0,30.35773,26.90963396,-99999.0,'11111222,11111222,99999999' 
TABS,ioos:station:wmo:42045:1,2003-04-03T04:30:00Z,26.2168,-96.4998,2.0,29.26695174,27.79839204,-99999.0,'11111222,11111222,99999999' 
TABS,ioos:station:wmo:42045:1,2003-04-03T05:00:00Z,26.2168,-96.4998,2.0,32.46969646,26.95345061,-99999.0,'11111222,11111222,99999999' 
TABS,ioos:station:wmo:42045:1,2003-04-03T05:30:00Z,26.2168,-96.4998,2.0,26.03679616,27.15596435,-99999.0,'11111222,11111222,99999999' 
TABS,ioos:station:wmo:42045:1,2003-04-03T06:00:00Z,26.2168,-96.4998,2.0,30.23297899,31.45883024,-99999.0,'11111222,11111222,99999999' 
TABS,ioos:station:wmo:42045:1,2003-04-03T06:30:00Z,26.2168,-96.4998,2.0,35.15783462,28.04652207,-99999.0,'11111222,11111222,99999999' 
TABS,ioos:station:wmo:42045:1,2003-04-03T07:00:00Z,26.2168,-96.4998,2.0,39.15744351,30.21607685,-99999.0,'11111222,11111222,99999999' 
TABS,ioos:station:wmo:42045:1,2003-04-03T07:30:00Z,26.2168,-96.4998,2.0,39.3594121,31.72594049,-99999.0,'11111222,11111222,99999999' 
TABS,ioos:station:wmo:42045:1,2003-04-03T08:00:00Z,26.2168,-96.4998,2.0,37.03134006,29.12411544,-99999.0,'11111222,11111222,99999999' 
TABS,ioos:station:wmo:42045:1,2003-04-03T08:30:00Z,26.2168,-96.4998,2.0,35.21040502,30.10862999,-99999.0,'11111222,11111222,99999999' 
TABS,ioos:station:wmo:42045:1,2003-04-03T09:00:00Z,26.2168,-96.4998,2.0,36.21076991,27.811841,-99999.0,'11111222,11111222,99999999' 
TABS,ioos:station:wmo:42045:1,2003-04-03T09:30:00Z,26.2168,-96.4998,2.0,41.38399979,28.58867783,-99999.0,'11111222,11111222,99999999' 
TABS,ioos:station:wmo:42045:1,2003-04-03T10:00:00Z,26.2168,-96.4998,2.0,38.69068098,26.18722017,-99999.0,'11111222,11111222,99999999' 
TABS,ioos:station:wmo:42045:1,2003-04-03T10:30:00Z,26.2168,-96.4998,2.0,41.0031259,24.75237362,-99999.0,'11111222,11111222,99999999' 
TABS,ioos:station:wmo:42045:1,2003-04-03T11:00:00Z,26.2168,-96.4998,2.0,44.3785635,25.42198458,-99999.0,'11111222,11111222,99999999' 
TABS,ioos:station:wmo:42045:1,2003-04-03T11:30:00Z,26.2168,-96.4998,2.0,44.81007062,25.58326406,-99999.0,'11111222,11111222,99999999' 
TABS,ioos:station:wmo:42045:1,2003-04-03T12:00:00Z,26.2168,-96.4998,2.0,54.46240531,27.69948736,-99999.0,'11111222,11111222,99999999' 
TABS,ioos:station:wmo:42045:1,2003-04-03T12:30:00Z,26.2168,-96.4998,2.0,49.31679323,22.73433527,-99999.0,'11111222,11111222,99999999' 
TABS,ioos:station:wmo:42045:1,2003-04-03T13:00:00Z,26.2168,-96.4998,2.0,47.97920684,21.49681372,-99999.0,'11111222,11111222,99999999' 
TABS,ioos:station:wmo:42045:1,2003-04-03T13:30:00Z,26.2168,-96.4998,2.0,53.26539315,22.03606135,-99999.0,'11111222,11111222,99999999' 
TABS,ioos:station:wmo:42045:1,2003-04-03T14:00:00Z,26.2168,-96.4998,2.0,49.56069008,23.0326833,-99999.0,'11111222,11111222,99999999' 
TABS,ioos:station:wmo:42045:1,2003-04-03T14:30:00Z,26.2168,-96.4998,2.0,67.00705477,18.66270345,-99999.0,'11111222,11111222,99999999' 
TABS,ioos:station:wmo:42045:1,2003-04-03T15:00:00Z,26.2168,-96.4998,2.0,48.52155037,17.49857709,-99999.0,'11111222,11111222,99999999' 
TABS,ioos:station:wmo:42045:1,2003-04-03T16:00:00Z,26.2168,-96.4998,2.0,71.85204838,13.25959652,-99999.0,'11111222,11111222,99999999' 
TABS,ioos:station:wmo:42045:1,2003-04-03T16:30:00Z,26.2168,-96.4998,2.0,81.69068165,13.56237442,-99999.0,'11111222,11111222,99999999' 
TABS,ioos:station:wmo:42045:1,2003-04-03T17:00:00Z,26.2168,-96.4998,2.0,73.05510746,10.94518159,-99999.0,'11111222,11111222,99999999' 
TABS,ioos:station:wmo:42045:1,2003-04-03T17:30:00Z,26.2168,-96.4998,2.0,83.68880418,8.732926199,-99999.0,'11133222,11111222,99999999' 
TABS,ioos:station:wmo:42045:1,2003-04-03T18:00:00Z,26.2168,-96.4998,2.0,54.36508796,10.95054337,-99999.0,'11111222,11111222,99999999' 
TABS,ioos:station:wmo:42045:1,2003-04-03T19:00:00Z,26.2168,-96.4998,2.0,38.70970113,12.58448648,-99999.0,'11111222,11111222,99999999' 
TABS,ioos:station:wmo:42045:1,2003-04-03T19:30:00Z,26.2168,-96.4998,2.0,34.31403829,12.73667146,-99999.0,'11111222,11111222,99999999' 
TABS,ioos:station:wmo:42045:1,2003-04-03T20:00:00Z,26.2168,-96.4998,2.0,47.25231284,13.49495091,-99999.0,'11111222,11111222,99999999' 
TABS,ioos:station:wmo:42045:1,2003-04-03T20:30:00Z,26.2168,-96.4998,2.0,37.64876728,12.6551689,-99999.0,'11111222,11111222,99999999' 
TABS,ioos:station:wmo:42045:1,2003-04-03T21:00:00Z,26.2168,-96.4998,2.0,28.17515623,15.12178892,-99999.0,'11111222,11111222,99999999' 
TABS,ioos:station:wmo:42045:1,2003-04-03T21:30:00Z,26.2168,-96.4998,2.0,20.2604392,16.778072,-99999.0,'11111222,11111222,99999999' 
TABS,ioos:station:wmo:42045:1,2003-04-03T22:00:00Z,26.2168,-96.4998,2.0,12.18069136,18.19971703,-99999.0,'11111222,11111222,99999999' 
TABS,ioos:station:wmo:42045:1,2003-04-03T22:30:00Z,26.2168,-96.4998,2.0,17.44242192,18.98283962,-99999.0,'11111222,11111222,99999999' 
TABS,ioos:station:wmo:42045:1,2003-04-03T23:00:00Z,26.2168,-96.4998,2.0,26.75122368,17.90652674,-99999.0,'11111222,11111222,99999999' 
TABS,ioos:station:wmo:42045:1,2003-04-03T23:30:00Z,26.2168,-96.4998,2.0,23.86146058,17.82341438,-99999.0,'11111222,11111222,99999999' 
TABS,ioos:station:wmo:42045:1,2003-04-04T00:00:00Z,26.2168,-96.4998,2.0,13.69422232,17.86791818,-99999.0,'11111222,11111222,99999999' 
TABS,ioos:station:wmo:42045:1,2003-04-04T00:30:00Z,26.2168,-96.4998,2.0,9.795424174,16.69335497,-99999.0,'11111222,11111222,99999999' 
TABS,ioos:station:wmo:42045:1,2003-04-04T01:00:00Z,26.2168,-96.4998,2.0,24.96445383,17.77025886,-99999.0,'11111222,11111222,99999999' 
TABS,ioos:station:wmo:42045:1,2003-04-04T01:30:00Z,26.2168,-96.4998,2.0,31.86121186,21.46396515,-99999.0,'11111222,11111222,99999999' 
TABS,ioos:station:wmo:42045:1,2003-04-04T02:00:00Z,26.2168,-96.4998,2.0,27.10114589,19.60222947,-99999.0,'11111222,11111222,99999999' 
TABS,ioos:station:wmo:42045:1,2003-04-04T02:30:00Z,26.2168,-96.4998,2.0,26.96014779,18.81472296,-99999.0,'11111222,11111222,99999999' 
TABS,ioos:station:wmo:42045:1,2003-04-04T03:00:00Z,26.2168,-96.4998,2.0,21.89782812,19.89542661,-99999.0,'11111222,11111222,99999999' 
TABS,ioos:station:wmo:42045:1,2003-04-04T03:30:00Z,26.2168,-96.4998,2.0,29.91074857,20.15448833,-99999.0,'11111222,11111222,99999999' 
TABS,ioos:station:wmo:42045:1,2003-04-04T04:00:00Z,26.2168,-96.4998,2.0,18.55541279,21.08611391,-99999.0,'11111222,11111222,99999999' 
TABS,ioos:station:wmo:42045:1,2003-04-04T04:30:00Z,26.2168,-96.4998,2.0,20.79656401,23.71508592,-99999.0,'11111222,11111222,99999999' 
TABS,ioos:station:wmo:42045:1,2003-04-04T05:00:00Z,26.2168,-96.4998,2.0,23.56458952,23.23777313,-99999.0,'11111222,11111222,99999999' 
TABS,ioos:station:wmo:42045:1,2003-04-04T05:30:00Z,26.2168,-96.4998,2.0,22.93544954,25.43038537,-99999.0,'11111222,11111222,99999999' 
TABS,ioos:station:wmo:42045:1,2003-04-04T06:00:00Z,26.2168,-96.4998,2.0,22.35477514,24.42564636,-99999.0,'11111222,11111222,99999999' 
TABS,ioos:station:wmo:42045:1,2003-04-04T06:30:00Z,26.2168,-96.4998,2.0,29.82191377,24.95457072,-99999.0,'11111222,11111222,99999999' 
TABS,ioos:station:wmo:42045:1,2003-04-04T07:00:00Z,26.2168,-96.4998,2.0,36.81437013,26.76801263,-99999.0,'11111222,11111222,99999999' 
TABS,ioos:station:wmo:42045:1,2003-04-04T07:30:00Z,26.2168,-96.4998,2.0,33.74013548,25.45797517,-99999.0,'11111222,11111222,99999999' 
TABS,ioos:station:wmo:42045:1,2003-04-04T08:00:00Z,26.2168,-96.4998,2.0,44.23155121,23.19518916,-99999.0,'11111222,11111222,99999999' 
TABS,ioos:station:wmo:42045:1,2003-04-04T08:30:00Z,26.2168,-96.4998,2.0,37.72406107,24.28669801,-99999.0,'11111222,11111222,99999999' 
TABS,ioos:station:wmo:42045:1,2003-04-04T09:00:00Z,26.2168,-96.4998,2.0,35.48091318,24.58522524,-99999.0,'11111222,11111222,99999999' 
TABS,ioos:station:wmo:42045:1,2003-04-04T09:30:00Z,26.2168,-96.4998,2.0,31.62108742,25.11933518,-99999.0,'11111222,11111222,99999999' 
TABS,ioos:station:wmo:42045:1,2003-04-04T10:00:00Z,26.2168,-96.4998,2.0,32.60200509,25.55687383,-99999.0,'11111222,11111222,99999999' 
TABS,ioos:station:wmo:42045:1,2003-04-04T10:30:00Z,26.2168,-96.4998,2.0,45.45410243,26.77190318,-99999.0,'11111222,11111222,99999999' 
TABS,ioos:station:wmo:42045:1,2003-04-04T11:00:00Z,26.2168,-96.4998,2.0,47.32116276,23.39614498,-99999.0,'11111222,11111222,99999999' 
TABS,ioos:station:wmo:42045:1,2003-04-04T11:30:00Z,26.2168,-96.4998,2.0,41.41968389,24.6837801,-99999.0,'11111222,11111222,99999999' 
TABS,ioos:station:wmo:42045:1,2003-04-04T12:00:00Z,26.2168,-96.4998,2.0,45.61688061,24.30466828,-99999.0,'11111222,11111222,99999999' 
TABS,ioos:station:wmo:42045:1,2003-04-04T12:30:00Z,26.2168,-96.4998,2.0,38.14050516,21.01716679,-99999.0,'11111222,11111222,99999999' 
TABS,ioos:station:wmo:42045:1,2003-04-04T13:00:00Z,26.2168,-96.4998,2.0,40.00380748,24.43854537,-99999.0,'11111222,11111222,99999999' 
TABS,ioos:station:wmo:42045:1,2003-04-04T13:30:00Z,26.2168,-96.4998,2.0,39.2968833,27.39457063,-99999.0,'11111222,11111222,99999999' 
TABS,ioos:station:wmo:42045:1,2003-04-04T14:00:00Z,26.2168,-96.4998,2.0,42.59536362,27.80671322,-99999.0,'11111222,11111222,99999999' 
TABS,ioos:station:wmo:42045:1,2003-04-04T14:30:00Z,26.2168,-96.4998,2.0,55.12857405,26.09587132,-99999.0,'11111222,11111222,99999999' 
TABS,ioos:station:wmo:42045:1,2003-04-04T15:00:00Z,26.2168,-96.4998,2.0,56.20337828,28.31472055,-99999.0,'11111222,11111222,99999999' 
TABS,ioos:station:wmo:42045:1,2003-04-04T16:00:00Z,26.2168,-96.4998,2.0,54.28795195,32.07054724,-99999.0,'11111222,11111222,99999999' 
TABS,ioos:station:wmo:42045:1,2003-04-04T16:30:00Z,26.2168,-96.4998,2.0,63.16798923,33.58610576,-99999.0,'11111222,11111222,99999999' 
TABS,ioos:station:wmo:42045:1,2003-04-04T17:00:00Z,26.2168,-96.4998,2.0,64.48825938,34.06107015,-99999.0,'11111222,11111222,99999999' 
TABS,ioos:station:wmo:42045:1,2003-04-04T17:30:00Z,26.2168,-96.4998,2.0,69.12499478,33.42395847,-99999.0,'11111222,11111222,99999999' 
TABS,ioos:station:wmo:42045:1,2003-04-04T18:00:00Z,26.2168,-96.4998,2.0,73.79803283,31.89681646,-99999.0,'11111222,11111222,99999999' 
TABS,ioos:station:wmo:42045:1,2003-04-04T19:00:00Z,26.2168,-96.4998,2.0,83.9957468,31.64359335,-99999.0,'11111222,11111222,99999999' 
TABS,ioos:station:wmo:42045:1,2003-04-04T19:30:00Z,26.2168,-96.4998,2.0,101.8045743,19.30835311,-99999.0,'11111222,11111222,99999999' 